1484773200.45,9610,6.56,73952.0,-15.81,-46.35,-46.55,0,*55
1484773201.71,9611,6.63,73954.5,-15.81,-46.35,-46.61,0,*53
1484773202.95,9612,6.56,73952.3,-15.81,-46.55,-46.75,0,*53
1484773204.23,9613,6.56,73950.5,-15.81,-46.41,-46.41,0,*50
1484773205.49,9614,6.56,73952.0,-15.81,-46.35,-46.61,0,*56
1484773206.76,9615,6.56,73952.0,-15.81,-46.61,-46.83,0,*5A
1484773208.04,9616,6.56,73952.8,-15.81,-46.41,-46.41,0,*55
1484773209.31,9617,6.56,73948.3,-15.77,-46.27,-46.35,0,*5E
1484773210.59,9618,6.56,73948.5,-15.81,-46.61,-47.03,0,*5E
1484773211.86,9619,6.56,73950.3,-15.77,-46.35,-46.49,0,*58
1484773213.12,9620,6.56,73952.5,-15.81,-46.21,-46.41,0,*56
1484773214.4,9621,6.56,73954.3,-15.81,-46.41,-46.41,0,*51
1484773215.69,9622,6.56,73948.5,-15.77,-46.27,-46.49,0,*53
1484773216.96,9623,6.56,73954.5,-15.81,-46.35,-46.41,0,*50
1484773218.22,9624,6.56,73956.0,-15.77,-46.49,-46.75,0,*52
1484773219.5,9625,6.56,73956.0,-15.81,-46.41,-46.61,0,*57
1484773220.74,9626,6.56,73958.3,-15.77,-46.35,-46.35,0,*5F
1484773222.03,9627,6.56,73954.8,-15.77,-46.07,-46.07,0,*5E
1484773223.33,9628,6.63,73956.0,-15.77,-46.49,-46.49,0,*51
1484773224.57,9629,6.63,73956.5,-15.77,-46.35,-46.35,0,*50
1484773225.83,9630,6.56,73954.5,-15.81,-46.55,-46.61,0,*56
1484773227.09,9631,6.56,73954.5,-15.81,-46.55,-46.61,0,*57
1484773228.38,9632,6.56,73952.0,-15.77,-46.07,-46.15,0,*59
1484773229.67,9633,6.56,73948.5,-15.77,-46.07,-46.07,0,*5B
1484773230.93,9634,6.63,73954.5,-15.77,-45.87,-46.07,0,*57
1484773232.2,9635,6.63,73956.0,-15.77,-45.87,-46.15,0,*55
1484773233.46,9636,6.56,73952.0,-15.77,-45.87,-46.07,0,*55
1484773234.69,9637,6.63,73956.8,-15.75,-45.87,-46.07,0,*56
1484773235.91,9638,6.56,73954.8,-15.75,-45.87,-46.01,0,*5F
1484773237.17,9639,6.56,73956.0,-15.75,-46.07,-46.27,0,*51
1484773238.38,9640,6.56,73954.5,-15.75,-45.87,-46.01,0,*50
1484773239.61,9641,6.56,73956.5,-15.75,-45.87,-45.81,0,*5A
1484773240.85,9642,6.56,73952.8,-15.75,-45.81,-46.01,0,*54
1484773242.1,9643,6.56,73958.3,-15.73,-45.81,-45.87,0,*5E
1484773243.37,9644,6.63,73958.8,-15.73,-45.67,-45.81,0,*57
1484773244.62,9645,6.56,73958.3,-15.75,-45.81,-45.81,0,*58
1484773245.91,9646,6.56,73952.0,-15.73,-46.07,-46.07,0,*5D
1484773247.13,9647,6.56,73952.5,-15.71,-45.95,-46.01,0,*50
1484773248.36,9648,6.63,73958.0,-15.71,-45.73,-45.95,0,*59
1484773249.62,9649,6.56,73956.5,-15.71,-45.73,-45.81,0,*5D
1484773250.88,9650,6.56,73954.5,-15.71,-45.73,-45.81,0,*55
1484773252.14,9651,6.63,73956.8,-15.69,-45.81,-46.01,0,*5B
1484773253.38,9652,6.56,73956.0,-15.69,-45.95,-46.21,0,*5F
1484773254.64,9653,6.56,73952.3,-15.69,-45.81,-45.95,0,*57
1484773255.89,9654,6.56,73954.8,-15.69,-45.81,-45.95,0,*50
1484773257.19,9655,6.63,73956.0,-15.69,-46.07,-46.07,0,*54
1484773258.48,9656,6.63,73956.0,-15.69,-46.41,-46.49,0,*5F
1484773259.76,9657,6.56,73958.3,-15.69,-46.41,-46.61,0,*54
1484773261.02,9658,6.56,73956.8,-15.71,-46.49,-46.69,0,*52
1484773262.31,9659,6.56,73958.0,-15.69,-46.41,-46.49,0,*50
1484773263.57,9660,6.56,73954.8,-15.71,-46.41,-46.61,0,*59
1484773264.85,9661,6.56,73956.5,-15.69,-46.41,-46.69,0,*59
1484773266.14,9662,6.56,73952.3,-15.69,-46.07,-46.27,0,*52
1484773267.43,9663,6.63,73958.5,-15.69,-46.41,-46.69,0,*5B
1484773268.71,9664,6.56,73956.0,-15.69,-46.41,-46.61,0,*54
1484773269.95,9665,6.56,73956.5,-15.71,-46.69,-46.83,0,*5A
1484773271.21,9666,6.56,73956.0,-15.71,-46.69,-47.03,0,*50
1484773272.47,9667,6.63,73958.8,-15.71,-46.69,-46.89,0,*52
1484773273.71,9668,6.63,73956.5,-15.71,-46.61,-46.83,0,*5F
1484773274.97,9669,6.63,73956.8,-15.71,-46.69,-46.89,0,*5C
1484773276.23,9670,6.63,73956.0,-15.71,-46.41,-46.69,0,*50
1484773277.45,9671,6.56,73952.3,-15.71,-46.83,-46.83,0,*5B
1484773278.71,9672,6.56,73954.5,-15.71,-46.41,-46.69,0,*52
1484773279.97,9673,6.63,73958.0,-15.73,-46.49,-46.55,0,*56
1484773281.24,9674,6.63,73956.3,-15.73,-46.35,-46.27,0,*5F
1484773282.51,9675,6.63,73958.3,-15.71,-46.41,-46.49,0,*57
1484773283.77,9676,6.63,73956.8,-15.69,-46.07,-46.21,0,*51
1484773285.07,9677,6.63,73958.3,-15.69,-46.07,-46.27,0,*56
1484773286.31,9678,6.56,73956.0,-15.69,-46.01,-46.01,0,*5B
1484773287.56,9679,6.56,73958.5,-15.69,-46.01,-46.21,0,*58
1484773288.77,9680,6.63,73958.0,-15.71,-45.95,-46.21,0,*59
1484773290.03,9681,6.63,73958.8,-15.69,-46.21,-46.41,0,*5B
1484773291.33,9682,6.56,73956.3,-15.69,-46.49,-46.89,0,*52
1484773292.59,9683,6.63,73960.0,-15.71,-46.49,-46.69,0,*54
1484773293.88,9684,6.56,73958.0,-15.69,-46.49,-46.61,0,*52
1484773295.15,9685,6.63,73958.0,-15.71,-46.49,-46.49,0,*50
1484773296.41,9686,6.63,73958.8,-15.71,-46.49,-46.49,0,*53
1484773297.68,9687,6.63,73958.5,-15.69,-46.07,-46.21,0,*5F
1484773298.94,9688,6.63,73958.8,-15.69,-46.21,-46.41,0,*52
1484773300.21,9689,6.56,73954.3,-15.71,-46.41,-46.49,0,*54
1484773301.47,9690,6.56,73958.8,-15.69,-46.07,-46.21,0,*59
1484773302.71,9691,6.56,73956.0,-15.69,-46.21,-46.21,0,*5C
1484773303.98,9692,6.56,73956.8,-15.69,-46.21,-46.27,0,*59
1484773305.24,9693,6.56,73954.8,-15.69,-46.21,-46.27,0,*58
1484773306.48,9694,6.56,73956.5,-15.67,-46.35,-46.41,0,*54
1484773307.77,9695,6.56,73956.3,-15.69,-46.41,-46.49,0,*50
1484773309.07,9696,6.56,73956.0,-15.69,-46.49,-46.89,0,*57
1484773310.33,9697,6.56,73960.3,-15.71,-46.49,-46.61,0,*59
1484773311.62,9698,6.56,73958.3,-15.69,-46.49,-46.61,0,*5F
1484773312.86,9699,6.56,73956.3,-15.71,-46.69,-46.83,0,*59
1484773314.12,9700,6.56,73956.8,-15.71,-46.49,-46.69,0,*5E
1484773315.39,9701,6.56,73956.5,-15.69,-46.83,-46.89,0,*5E
1484773316.68,9702,6.56,73958.8,-15.69,-46.61,-46.69,0,*5F
1484773317.95,9703,6.63,73962.3,-15.71,-46.49,-46.49,0,*5F
1484773319.21,9704,6.56,73958.0,-15.71,-46.27,-46.41,0,*58
1484773320.49,9705,6.63,73962.5,-15.69,-46.41,-46.61,0,*52
1484773321.78,9706,6.63,73962.8,-15.69,-46.49,-46.61,0,*59
1484773323.07,9707,6.56,73960.3,-15.69,-46.41,-46.49,0,*5A
1484773324.36,9708,6.56,73960.5,-15.69,-46.41,-46.41,0,*5D
1484773325.62,9709,6.56,73958.0,-15.71,-46.49,-46.69,0,*57
1484773326.9,9710,6.56,73960.0,-15.69,-46.41,-46.61,0,*56
1484773328.17,9711,6.56,73958.5,-15.71,-46.27,-46.41,0,*5C
1484773329.43,9712,6.56,73960.3,-15.69,-46.21,-46.41,0,*50
1484773330.72,9713,6.56,73960.0,-15.69,-46.41,-46.27,0,*57
1484773331.99,9714,6.56,73956.3,-15.71,-46.27,-46.41,0,*59
1484773333.25,9715,6.56,73960.3,-15.71,-46.27,-46.41,0,*58
1484773334.55,9716,6.56,73958.3,-15.69,-46.27,-46.41,0,*52
1484773335.76,9717,6.56,73958.5,-15.71,-46.21,-46.21,0,*5A
1484773337.02,9718,6.56,73958.8,-15.71,-46.41,-46.27,0,*55
1484773338.29,9719,6.56,73956.0,-15.69,-46.21,-46.27,0,*5B
1484773339.53,9720,6.56,73958.0,-15.69,-45.95,-46.01,0,*59
1484773340.8,9721,6.56,73958.3,-15.69,-46.01,-46.07,0,*50
1484773342.02,9722,6.63,73960.8,-15.67,-45.95,-46.01,0,*55
1484773343.24,9723,6.56,73960.0,-15.67,-45.87,-46.01,0,*57
1484773344.44,9724,6.56,73960.3,-15.67,-45.87,-45.87,0,*5D
1484773345.68,9725,6.56,73960.8,-15.67,-45.95,-46.15,0,*57
1484773346.93,9726,6.56,73960.0,-15.67,-46.15,-46.21,0,*58
1484773348.17,9727,6.56,73960.8,-15.67,-46.15,-46.21,0,*59
1484773349.41,9728,6.56,73958.5,-15.67,-46.21,-46.41,0,*57
1484773350.62,9729,6.56,73958.3,-15.67,-46.21,-46.21,0,*50
1484773351.89,9730,6.56,73956.3,-15.67,-46.15,-46.15,0,*58
1484773353.11,9731,6.56,73962.5,-15.67,-46.01,-46.01,0,*59
1484773354.38,9732,6.56,73958.5,-15.65,-46.15,-46.21,0,*5F
1484773355.62,9733,6.56,73958.5,-15.65,-46.35,-46.55,0,*5F
1484773356.89,9734,6.56,73960.5,-15.65,-46.35,-46.41,0,*5D
1484773358.13,9735,6.56,73960.8,-15.65,-46.21,-46.55,0,*5C
1484773359.37,9736,6.56,73958.8,-15.67,-46.21,-46.41,0,*58
1484773360.58,9737,6.56,73956.5,-15.67,-45.95,-46.01,0,*51
1484773361.85,9738,6.56,73956.5,-15.65,-46.01,-46.41,0,*56
1484773363.09,9739,6.56,73956.3,-15.67,-45.95,-46.15,0,*5A
1484773364.31,9740,6.56,73956.8,-15.67,-46.01,-46.35,0,*58
1484773365.55,9741,6.56,73958.0,-15.67,-46.15,-46.35,0,*5C
1484773366.79,9742,6.56,73958.8,-15.67,-46.35,-46.41,0,*5E
1484773368.04,9743,6.56,73958.8,-15.65,-46.35,-46.55,0,*58
1484773369.25,9744,6.56,73960.3,-15.67,-45.95,-46.21,0,*57
1484773370.49,9745,6.56,73958.5,-15.67,-46.15,-46.21,0,*5D
1484773371.73,9746,6.56,73956.5,-15.65,-45.95,-46.01,0,*55
1484773372.95,9747,6.56,73958.0,-15.67,-45.95,-46.01,0,*56
1484773374.19,9748,6.56,73958.5,-15.65,-45.95,-46.01,0,*5B
1484773375.43,9749,6.63,73962.0,-15.65,-45.87,-45.87,0,*54
1484773376.73,9750,6.56,73956.3,-15.65,-46.15,-46.15,0,*5C
1484773377.97,9751,6.56,73958.8,-15.65,-46.01,-46.21,0,*5F
1484773379.19,9752,6.56,73958.3,-15.63,-46.35,-46.55,0,*5E
1484773380.43,9753,6.56,73958.8,-15.63,-46.27,-46.35,0,*5A
1484773381.67,9754,6.56,73958.3,-15.63,-46.27,-46.35,0,*5D
1484773382.96,9755,6.63,73960.5,-15.61,-46.07,-46.27,0,*5F
1484773384.23,9756,6.56,73956.3,-15.63,-46.07,-46.07,0,*5C
1484773385.5,9757,6.56,73956.5,-15.63,-46.27,-46.27,0,*5D
1484773386.73,9758,6.56,73958.0,-15.63,-46.07,-45.95,0,*5A
1484773388.03,9759,6.56,73958.0,-15.61,-46.15,-46.27,0,*50
1484773389.3,9760,6.56,73958.3,-15.63,-46.15,-46.27,0,*58
1484773390.56,9761,6.56,73958.5,-15.63,-46.07,-46.27,0,*5A
1484773391.77,9762,6.56,73958.0,-15.63,-45.87,-45.95,0,*58
1484773393.03,9763,6.63,73960.3,-15.63,-46.07,-46.27,0,*58
1484773394.27,9764,6.56,73958.0,-15.63,-45.95,-46.27,0,*57
1484773395.51,9765,6.56,73960.5,-15.63,-45.95,-46.15,0,*57
1484773396.75,9766,6.56,73960.3,-15.61,-45.95,-45.95,0,*5D
1484773398.01,9767,6.56,73958.8,-15.61,-45.95,-46.27,0,*56
1484773399.28,9768,6.56,73956.8,-15.63,-46.15,-46.27,0,*50
1484773400.57,9769,6.56,73958.5,-15.61,-46.07,-46.15,0,*51
1484773401.83,9770,6.56,73958.0,-15.61,-45.95,-46.07,0,*52
1484773403.07,9771,6.56,73958.5,-15.63,-45.95,-46.07,0,*51
1484773404.33,9772,6.56,73958.8,-15.61,-45.87,-46.27,0,*51
1484773405.62,9773,6.56,73962.5,-15.61,-46.07,-46.07,0,*59
1484773406.89,9774,6.56,73958.0,-15.61,-46.15,-46.35,0,*5C
1484773408.18,9775,6.56,73962.5,-15.61,-46.07,-46.15,0,*5C
1484773409.45,9776,6.56,73958.3,-15.61,-45.95,-46.07,0,*54
1484773410.68,9777,6.56,73956.8,-15.59,-46.01,-46.07,0,*50
1484773411.98,9778,6.56,73958.5,-15.61,-46.15,-46.15,0,*52
1484773413.27,9779,6.56,73958.0,-15.61,-46.27,-46.49,0,*5B
1484773414.57,9780,6.56,73958.8,-15.61,-46.27,-46.49,0,*5D
1484773415.86,9781,6.56,73956.5,-15.61,-46.27,-46.49,0,*5C
1484773417.13,9782,6.56,73958.8,-15.61,-46.27,-46.55,0,*52
1484773418.42,9783,6.56,73958.5,-15.61,-46.27,-46.15,0,*57
1484773419.72,9784,6.56,73958.5,-15.61,-46.15,-46.15,0,*51
1484773420.99,9785,6.56,73956.8,-15.63,-46.15,-46.27,0,*53
1484773422.28,9786,6.56,73956.3,-15.61,-46.07,-46.27,0,*51
1484773423.51,9787,6.56,73960.8,-15.59,-46.01,-46.27,0,*5D
1484773424.73,9788,6.56,73960.3,-15.59,-46.01,-46.01,0,*56
1484773425.99,9789,6.56,73962.0,-15.61,-45.95,-46.15,0,*57
1484773427.25,9790,6.56,73958.8,-15.59,-45.81,-46.07,0,*52
1484773428.52,9791,6.56,73962.8,-15.61,-46.27,-46.35,0,*56
1484773429.78,9792,6.56,73956.5,-15.61,-46.15,-46.35,0,*54
1484773431.04,9793,6.56,73958.5,-15.59,-46.07,-46.27,0,*5E
1484773432.3,9794,6.56,73958.3,-15.59,-46.07,-46.27,0,*59
1484773433.53,9795,6.56,73958.5,-15.59,-45.87,-46.07,0,*51
1484773434.74,9796,6.56,73958.8,-15.59,-46.01,-46.21,0,*5B
1484773435.97,9797,6.56,73958.0,-15.59,-45.87,-46.07,0,*53
1484773437.2,9798,6.56,73960.0,-15.59,-46.07,-46.21,0,*53
1484773438.44,9799,6.56,73956.3,-15.59,-46.01,-46.27,0,*52
1484773439.68,9800,6.56,73956.0,-15.57,-46.01,-46.21,0,*55
1484773440.92,9801,6.56,73958.3,-15.59,-46.01,-46.07,0,*5E
1484773442.18,9802,6.56,73956.3,-15.59,-46.07,-46.27,0,*59
1484773443.44,9803,6.56,73956.5,-15.57,-45.87,-46.07,0,*5F
1484773444.7,9804,6.56,73958.8,-15.57,-45.87,-46.07,0,*58
1484773445.93,9805,6.56,73956.3,-15.59,-46.21,-46.41,0,*5A
1484773447.19,9806,6.56,73958.8,-15.57,-46.21,-46.49,0,*5F
1484773448.42,9807,6.56,73956.8,-15.59,-46.21,-46.49,0,*50
1484773449.71,9808,6.56,73954.5,-15.57,-46.27,-46.61,0,*5D
1484773451.0,9809,6.56,73958.8,-15.57,-46.27,-46.41,0,*5E
1484773452.2,9810,6.56,73956.0,-15.59,-45.87,-46.21,0,*57
1484773453.47,9811,6.56,73956.0,-15.57,-46.01,-46.07,0,*51
1484773454.73,9812,6.56,73956.0,-15.59,-46.27,-46.69,0,*50
1484773455.98,9813,6.56,73956.3,-15.59,-46.27,-46.61,0,*59
1484773457.27,9814,6.56,73956.5,-15.57,-46.07,-46.27,0,*50
1484773458.48,9815,6.56,73958.3,-15.59,-45.87,-46.21,0,*52
1484773459.74,9816,6.56,73956.5,-15.57,-46.21,-46.41,0,*56
1484773460.99,9817,6.56,73956.3,-15.59,-46.27,-46.61,0,*5D
1484773462.26,9818,6.56,73960.3,-15.59,-46.27,-46.49,0,*58
1484773463.5,9819,6.56,73956.3,-15.59,-46.41,-46.61,0,*53
1484773464.78,9820,6.56,73958.3,-15.57,-46.41,-46.61,0,*57
1484773466.03,9821,6.56,73958.0,-15.59,-46.41,-46.61,0,*58
1484773467.26,9822,6.56,73956.8,-15.59,-46.41,-46.83,0,*57
1484773468.52,9823,6.56,73956.5,-15.59,-46.27,-46.41,0,*58
1484773469.75,9824,6.56,73960.5,-15.59,-46.21,-46.61,0,*5B
1484773471.0,9825,6.56,73954.0,-15.59,-46.69,-46.89,0,*50
1484773472.26,9826,6.56,73956.8,-15.59,-46.69,-46.89,0,*53
1484773473.51,9827,6.56,73958.0,-15.59,-46.61,-47.03,0,*59
1484773474.74,9828,6.63,73960.5,-15.59,-46.41,-46.83,0,*5D
1484773475.99,9829,6.56,73956.5,-15.59,-46.41,-46.69,0,*58
1484773477.24,9830,6.56,73958.8,-15.59,-46.41,-46.49,0,*52
1484773478.5,9831,6.56,73958.0,-15.59,-46.07,-46.41,0,*59
1484773479.73,9832,6.56,73958.0,-15.59,-46.21,-46.41,0,*5E
1484773481.01,9833,6.56,73956.8,-15.57,-46.41,-46.61,0,*55
1484773482.27,9834,6.56,73958.5,-15.57,-46.21,-46.27,0,*56
1484773483.53,9835,6.56,73956.5,-15.57,-46.21,-46.41,0,*57
1484773484.76,9836,6.56,73954.0,-15.59,-46.21,-46.49,0,*52
1484773486.01,9837,6.56,73954.5,-15.59,-46.41,-46.69,0,*57
1484773487.31,9838,6.56,73956.0,-15.57,-46.27,-46.49,0,*54
1484773488.55,9839,6.56,73956.3,-15.59,-46.41,-46.61,0,*51
1484773489.81,9840,6.56,73954.8,-15.57,-46.21,-46.41,0,*55
1484773491.05,9841,6.56,73954.0,-15.59,-46.21,-46.27,0,*5A
1484773492.33,9842,6.56,73956.8,-15.57,-46.07,-46.27,0,*53
1484773493.57,9843,6.56,73958.5,-15.59,-46.21,-46.49,0,*50
1484773494.83,9844,6.56,73960.5,-15.59,-46.49,-46.69,0,*5B
1484773496.09,9845,6.56,73956.5,-15.57,-46.69,-46.83,0,*52
1484773497.34,9846,6.56,73954.5,-15.59,-46.69,-46.89,0,*55
1484773498.58,9847,6.56,73956.3,-15.59,-46.89,-47.31,0,*58
1484773499.82,9848,6.56,73958.0,-15.59,-46.89,-47.31,0,*57
1484773501.05,9849,6.56,73958.5,-15.59,-46.83,-47.03,0,*5D
1484773502.28,9850,6.56,73958.0,-15.59,-46.83,-47.03,0,*55
1484773503.51,9851,6.56,73960.0,-15.59,-46.61,-46.83,0,*51
1484773504.8,9852,6.56,73956.3,-15.57,-46.27,-46.41,0,*50
1484773506.06,9853,6.56,73958.0,-15.59,-46.27,-46.49,0,*57
1484773507.33,9854,6.56,73956.5,-15.61,-46.49,-46.55,0,*5E
1484773508.62,9855,6.56,73956.8,-15.61,-46.69,-46.89,0,*5C
1484773509.9,9856,6.56,73956.3,-15.61,-46.69,-46.89,0,*5F
1484773511.14,9857,6.56,73956.8,-15.61,-46.55,-46.75,0,*52
1484773512.42,9858,6.56,73956.8,-15.61,-46.69,-46.89,0,*51
1484773513.66,9859,6.56,73956.0,-15.63,-46.49,-46.75,0,*53
1484773514.9,9860,6.56,73958.0,-15.63,-46.55,-46.89,0,*57
1484773516.16,9861,6.56,73962.5,-15.61,-46.35,-46.69,0,*5C
1484773517.43,9862,6.56,73956.5,-15.61,-46.49,-46.75,0,*59
1484773518.72,9863,6.56,73956.0,-15.61,-46.49,-46.69,0,*55
1484773519.95,9864,6.56,73954.0,-15.61,-46.55,-46.75,0,*52
1484773521.24,9865,6.56,73956.0,-15.61,-46.49,-46.89,0,*5D
1484773522.5,9866,6.56,73956.5,-15.61,-46.55,-46.89,0,*53
1484773523.76,9867,6.56,73956.8,-15.61,-46.69,-46.97,0,*52
1484773525.02,9868,6.56,73958.0,-15.61,-46.89,-47.09,0,*55
1484773526.26,9869,6.63,73962.3,-15.63,-46.55,-46.89,0,*5E
1484773527.55,9870,6.56,73956.5,-15.61,-46.69,-46.89,0,*5B
1484773528.81,9871,6.56,73956.8,-15.61,-46.55,-46.89,0,*55
1484773530.09,9872,6.56,73958.0,-15.61,-46.69,-46.89,0,*59
1484773531.33,9873,6.56,73956.0,-15.63,-46.55,-46.89,0,*55
1484773532.56,9874,6.56,73958.3,-15.63,-46.75,-46.89,0,*50
1484773533.8,9875,6.56,73958.5,-15.63,-46.69,-46.97,0,*53
1484773535.06,9876,6.56,73958.5,-15.63,-46.49,-46.89,0,*5D
1484773536.36,9877,6.56,73958.5,-15.61,-46.89,-46.89,0,*52
1484773537.62,9878,6.56,73956.3,-15.61,-46.89,-46.97,0,*52
1484773538.91,9879,6.56,73962.0,-15.61,-46.69,-46.89,0,*52
1484773540.19,9880,6.56,73956.8,-15.61,-46.69,-46.89,0,*54
1484773541.4,9881,6.56,73958.8,-15.63,-46.75,-47.09,0,*53
1484773542.66,9882,6.56,73956.5,-15.63,-46.69,-46.89,0,*54
1484773543.87,9883,6.56,73958.3,-15.63,-46.55,-46.75,0,*59
1484773545.1,9884,6.56,73960.3,-15.63,-46.75,-46.89,0,*5F
1484773546.37,9885,6.56,73958.5,-15.63,-46.69,-46.89,0,*53
1484773547.63,9886,6.56,73958.3,-15.63,-46.69,-46.89,0,*50
1484773548.87,9887,6.56,73960.3,-15.63,-46.89,-47.09,0,*56
1484773550.07,9888,6.56,73962.8,-15.63,-46.75,-47.09,0,*5A
1484773551.33,9889,6.56,73958.8,-15.65,-46.83,-47.03,0,*5E
1484773552.57,9890,6.56,73958.5,-15.65,-46.75,-46.97,0,*53
1484773553.78,9891,6.56,73958.3,-15.63,-47.09,-47.17,0,*57
1484773555.05,9892,6.56,73956.8,-15.65,-47.31,-47.45,0,*5E
1484773556.28,9893,6.56,73958.3,-15.65,-47.17,-47.17,0,*5C
1484773557.55,9894,6.56,73956.5,-15.65,-46.83,-47.03,0,*52
1484773558.81,9895,6.56,73956.5,-15.67,-47.23,-47.23,0,*58
1484773560.04,9896,6.56,73956.5,-15.67,-46.75,-47.03,0,*5B
1484773561.32,9897,6.56,73956.8,-15.65,-47.03,-47.03,0,*58
1484773562.53,9898,6.56,73956.8,-15.67,-46.75,-46.97,0,*59
1484773563.77,9899,6.56,73960.8,-15.67,-46.61,-46.83,0,*58
1484773565.03,9900,6.56,73958.5,-15.65,-46.61,-46.75,0,*52
1484773566.31,9901,6.56,73956.5,-15.65,-46.41,-46.61,0,*54
1484773567.55,9902,6.56,73958.8,-15.67,-46.55,-46.61,0,*50
1484773568.79,9903,6.56,73962.0,-15.67,-46.61,-46.83,0,*5A
1484773570.03,9904,6.56,73958.8,-15.67,-46.61,-46.83,0,*5D
1484773571.25,9905,6.56,73958.5,-15.67,-46.55,-46.83,0,*5B
1484773572.46,9906,6.56,73958.5,-15.67,-46.75,-46.97,0,*5F
1484773573.72,9907,6.56,73960.0,-15.65,-46.83,-47.03,0,*59
1484773574.98,9908,6.56,73958.8,-15.67,-47.03,-47.23,0,*5F
1484773576.27,9909,6.56,73960.3,-15.65,-47.03,-47.23,0,*5C
1484773577.5,9910,6.56,73960.0,-15.67,-47.03,-47.17,0,*51
1484773578.71,9911,6.56,73962.3,-15.67,-46.75,-46.97,0,*59
1484773579.92,9912,6.56,73960.3,-15.67,-46.83,-47.17,0,*5A
1484773581.16,9913,6.56,73962.5,-15.67,-46.83,-47.03,0,*5E
1484773582.37,9914,6.56,73958.8,-15.67,-46.97,-47.17,0,*59
1484773583.63,9915,6.56,73960.5,-15.69,-47.03,-47.09,0,*55
1484773584.89,9916,6.56,73962.3,-15.69,-47.03,-47.09,0,*56
1484773586.13,9917,6.56,73962.5,-15.71,-47.09,-47.23,0,*5C
1484773587.42,9918,6.56,73958.8,-15.69,-47.23,-47.23,0,*52
1484773588.67,9919,6.56,73956.0,-15.71,-46.89,-47.31,0,*58
1484773589.93,9920,6.56,73960.0,-15.69,-46.89,-47.09,0,*50
1484773591.2,9921,6.56,73960.3,-15.69,-47.03,-47.31,0,*59
1484773592.44,9922,6.56,73956.8,-15.71,-46.89,-47.09,0,*5B
1484773593.7,9923,6.56,73956.8,-15.69,-47.03,-47.09,0,*50
1484773594.93,9924,6.56,73956.8,-15.71,-46.89,-47.09,0,*5D
1484773596.19,9925,6.56,73958.8,-15.71,-46.69,-47.03,0,*58
1484773597.43,9926,6.56,73962.0,-15.71,-46.83,-46.89,0,*5C
1484773598.72,9927,6.56,73956.8,-15.69,-46.61,-46.89,0,*58
1484773599.96,9928,6.56,73958.3,-15.71,-46.61,-46.83,0,*54
1484773601.22,9929,6.56,73960.0,-15.71,-46.41,-46.69,0,*53
1484773602.46,9930,6.56,73956.3,-15.71,-46.61,-46.83,0,*5D
1484773603.72,9931,6.56,73960.3,-15.71,-46.49,-46.61,0,*5A
1484773604.99,9932,6.56,73956.0,-15.69,-46.69,-46.83,0,*5E
1484773606.25,9933,6.56,73958.8,-15.69,-47.03,-47.09,0,*51
1484773607.49,9934,6.56,73958.3,-15.71,-46.89,-47.09,0,*5C
1484773608.76,9935,6.56,73958.8,-15.69,-46.83,-46.89,0,*57
1484773610.0,9936,6.56,73962.5,-15.71,-46.83,-46.89,0,*5D
1484773611.26,9937,6.56,73956.5,-15.71,-46.61,-46.89,0,*50
1484773612.53,9938,6.56,73960.8,-15.69,-46.49,-46.83,0,*56
1484773613.8,9939,6.56,73958.8,-15.71,-46.89,-47.03,0,*5B
1484773615.04,9940,6.56,73962.5,-15.71,-46.83,-46.89,0,*5C
1484773616.29,9941,6.56,73964.5,-15.71,-46.69,-47.03,0,*5A
1484773617.58,9942,6.56,73956.3,-15.69,-46.69,-46.89,0,*53
1484773618.85,9943,6.56,73958.8,-15.71,-46.49,-46.69,0,*57
1484773620.11,9944,6.56,73958.3,-15.71,-46.69,-46.89,0,*5C
1484773621.37,9945,6.56,73956.8,-15.71,-46.27,-46.61,0,*51
1484773622.63,9946,6.56,73962.5,-15.71,-46.49,-46.61,0,*5A
1484773623.89,9947,6.56,73958.5,-15.71,-46.89,-47.03,0,*52
1484773625.14,9948,6.56,73958.3,-15.71,-46.83,-46.89,0,*54
1484773626.4,9949,6.56,73960.8,-15.71,-46.61,-46.89,0,*59
1484773627.68,9950,6.56,73960.8,-15.69,-46.69,-47.03,0,*53
1484773628.92,9951,6.56,73960.3,-15.71,-46.83,-46.89,0,*5C
1484773630.19,9952,6.56,73960.0,-15.71,-46.49,-46.69,0,*57
1484773631.45,9953,6.56,73962.8,-15.73,-46.69,-46.75,0,*5B
1484773632.72,9954,6.56,73958.5,-15.73,-46.49,-46.75,0,*5E
1484773633.99,9955,6.56,73958.0,-15.73,-46.35,-46.49,0,*5B
1484773635.28,9956,6.56,73958.5,-15.73,-46.49,-46.49,0,*53
1484773636.52,9957,6.56,73956.5,-15.71,-46.21,-46.27,0,*56
1484773637.78,9958,6.56,73958.3,-15.71,-46.41,-46.69,0,*55
1484773639.04,9959,6.56,73962.3,-15.71,-46.41,-46.41,0,*5E
1484773640.3,9960,6.56,73956.8,-15.71,-46.61,-46.69,0,*5C
1484773641.56,9961,6.56,73960.3,-15.71,-46.41,-46.69,0,*5F
1484773642.8,9962,6.56,73960.8,-15.71,-46.49,-46.83,0,*50
1484773644.06,9963,6.56,73962.3,-15.71,-46.49,-46.69,0,*55
1484773645.33,9964,6.56,73960.3,-15.71,-46.49,-46.49,0,*50
1484773646.58,9965,6.56,73960.0,-15.71,-46.61,-46.83,0,*5D
1484773647.79,9966,6.56,73962.3,-15.71,-46.83,-47.09,0,*51
1484773649.05,9967,6.56,73962.5,-15.71,-46.69,-46.89,0,*5D
1484773650.34,9968,6.56,73960.5,-15.69,-46.61,-46.89,0,*53
1484773651.6,9969,6.56,73960.3,-15.71,-46.49,-46.61,0,*57
1484773652.86,9970,6.56,73962.0,-15.71,-46.49,-46.69,0,*57
1484773654.12,9971,6.56,73962.8,-15.71,-46.49,-46.61,0,*5E
1484773655.42,9972,6.56,73958.3,-15.69,-46.27,-46.49,0,*56
1484773656.68,9973,6.56,73962.8,-15.71,-46.41,-46.61,0,*54
1484773657.95,9974,6.56,73956.5,-15.69,-46.61,-46.83,0,*54
1484773659.18,9975,6.56,73958.0,-15.71,-46.83,-47.03,0,*59
1484773660.44,9976,6.56,73962.5,-15.71,-46.61,-46.89,0,*55
1484773661.73,9977,6.56,73956.5,-15.69,-46.49,-46.61,0,*51
1484773663.0,9978,6.56,73960.3,-15.71,-46.27,-46.49,0,*55
1484773664.27,9979,6.56,73962.5,-15.71,-46.27,-46.49,0,*54
1484773665.51,9980,6.56,73956.3,-15.71,-46.21,-46.27,0,*5C
1484773666.72,9981,6.56,73962.0,-15.71,-46.21,-46.21,0,*5B
1484773667.96,9982,6.56,73960.5,-15.71,-46.21,-46.27,0,*5E
1484773669.2,9983,6.56,73960.8,-15.69,-46.21,-46.21,0,*50
1484773670.5,9984,6.56,73958.0,-15.69,-46.27,-46.41,0,*57
1484773671.76,9985,6.56,73962.0,-15.71,-46.27,-46.41,0,*5F
1484773673.06,9986,6.56,73962.5,-15.69,-46.27,-46.49,0,*5D
1484773674.32,9987,6.56,73956.5,-15.71,-46.41,-46.61,0,*5F
1484773675.6,9988,6.56,73958.8,-15.69,-46.41,-46.61,0,*59
1484773676.88,9989,6.56,73956.8,-15.69,-46.41,-46.61,0,*58
1484773678.17,9990,6.56,73960.5,-15.69,-46.27,-46.41,0,*52
1484773679.43,9991,6.56,73958.3,-15.71,-46.41,-46.49,0,*52
1484773680.73,9992,6.56,73958.3,-15.69,-46.27,-46.27,0,*50
1484773682.03,9993,6.56,73956.8,-15.69,-46.07,-46.07,0,*51
1484773683.29,9994,6.56,73956.8,-15.69,-46.07,-46.21,0,*52
1484773684.56,9995,6.56,73956.0,-15.69,-45.95,-46.07,0,*5F
1484773685.85,9996,6.56,73960.8,-15.69,-46.07,-46.07,0,*54
1484773687.15,9997,6.56,73960.3,-15.69,-46.27,-46.41,0,*55
1484773688.42,9998,6.56,73960.5,-15.69,-46.49,-46.83,0,*5C
1484773689.63,9999,6.56,73962.5,-15.67,-46.35,-46.55,0,*53
1484773690.93,10000,6.56,73958.3,-15.69,-46.41,-46.69,0,*60
1484773692.17,10001,6.56,73960.3,-15.65,-46.35,-46.55,0,*61
1484773693.39,10002,6.56,73958.8,-15.67,-46.21,-46.35,0,*63
1484773694.61,10003,6.56,73958.3,-15.67,-46.01,-46.35,0,*60
1484773695.84,10004,6.56,73960.8,-15.67,-46.01,-46.21,0,*62
1484773697.14,10005,6.56,73956.5,-15.65,-46.15,-46.15,0,*63
1484773698.36,10006,6.56,73958.3,-15.67,-45.95,-46.01,0,*6C
1484773699.61,10007,6.56,73960.5,-15.67,-46.15,-46.21,0,*64
1484773700.83,10008,6.56,73958.3,-15.67,-45.95,-45.95,0,*6C
1484773702.1,10009,6.56,73958.8,-15.65,-46.35,-46.41,0,*6C
1484773703.32,10010,6.56,73956.5,-15.67,-46.21,-46.55,0,*66
1484773704.54,10011,6.56,73958.3,-15.67,-45.87,-46.01,0,*69
1484773705.79,10012,6.56,73958.5,-15.65,-45.87,-46.01,0,*68
1484773707.04,10013,6.56,73962.8,-15.65,-45.95,-46.01,0,*6A
1484773708.28,10014,6.56,73962.8,-15.63,-45.87,-46.07,0,*6E
1484773709.52,10015,6.56,73958.8,-15.63,-45.87,-46.07,0,*6F
1484773710.76,10016,6.56,73960.3,-15.63,-45.81,-45.87,0,*61